Volver al catálogo

CERISE

ActivoMilitarPO
NORAD 23606·PAYLOAD·🇫🇷 France

Lanzado Jul 7, 1995 desde Guiana Space Centre

Loading…

Próximos Pases (próximas 24 horas)

TLE

ActualizadoSource: Space-Track

Época: Sep 14, 2026, 14:57 UTC

1 23606U 95033B   26257.62320422  .00013151  00000-0  35900-3 0  9991
2 23606  98.2980 126.0576 0003833 284.7114  75.3703 15.37578996693627

Sigue CERISE en tiempo real con AllMySat

Download on the App Store